Location: Franzen
(48.6167°N, 15.3833°E)
Time: 14:09:32
(UTC+00:00)

ATLAS 3B R/B - Pass Details

Date: 22 April 2021
Orbit: 1006 x 1189 km, 63.8° (Epoch: 21 April)

Event Time Altitude Azimuth Distance (km) Brightness Sun altitude
Rises 19:22:09 0° 315° (NW) 3,897 7.6 -12.7°
Reaches altitude 10° 19:24:58 10° 308° (NW) 2,965 6.5 -13.1°
Maximum altitude 19:31:17 36° 244° (WSW) 1,705 4.0 -13.9°
Drops below altitude 10° 19:37:48 10° 181° (S) 3,061 4.7 -14.8°
Enters shadow 19:39:09 - 177° (S) 3,499 5.0 -14.9°
